"Sample Date","Sample Time","Sample Value","Units","Flow Rate","Sample Interval","Number Channels","Micron Size 0","Counts/Channel 0","Micron Size 1","Counts/Channel 1","Micron Size 2","Counts/Channel 2","Micron Size 3","Counts/Channel 3","Micron Size 4","Counts/Channel 4","Micron Size 5","Counts/Channel 5","Micron Size 6","Counts/Channel 6","Micron Size 7","Counts/Channel 7","Micron Size 8","Counts/Channel 8","Micron Size 9","Counts/Channel 9","Micron Size 10","Counts/Channel 10","Micron Size 11","Counts/Channel 11","Micron Size 12","Counts/Channel 12","Micron Size 13","Counts/Channel 13","Micron Size 14","Counts/Channel 14","Micron Size 15","Counts/Channel 15","Micron Size 16","Counts/Channel 16","Micron Size 17","Counts/Channel 17","Micron Size 18","Counts/Channel 18","Micron Size 19","Counts/Channel 19","Micron Size 20","Counts/Channel 20","Micron Size 21","Counts/Channel 21","Micron Size 22","Counts/Channel 22","Micron Size 23","Counts/Channel 23","Micron Size 24","Counts/Channel 24","Micron Size 25","Counts/Channel 25","Micron Size 26","Counts/Channel 26","Micron Size 27","Counts/Channel 27","Micron Size 28","Counts/Channel 28","Micron Size 29","Counts/Channel 29","Micron Size 30","Counts/Channel 30","Micron Size 31","Counts/Channel 31"
"04/02/08","01:00:01",301139.000,"cc",28329.252,6.00,6,0.100,271856.000,0.200,27094.000,0.300,1377.000,0.500,598.000,1.000,214.000,5.000,0
"04/02/08","01:00:07",302323.000,"cc",28353.037,6.00,6,0.100,273248.000,0.200,26941.000,0.300,1296.000,0.500,618.000,1.000,220.000,5.000,0
"04/02/08","01:00:13",287218.000,"cc",28299.535,6.00,6,0.100,259959.000,0.200,25293.000,0.300,1220.000,0.500,553.000,1.000,193.000,5.000,0
"04/02/08","01:00:19",278243.000,"cc",28308.533,6.00,6,0.100,251610.000,0.200,24602.000,0.300,1226.000,0.500,595.000,1.000,210.000,5.000,0
"04/02/08","01:00:25",290620.000,"cc",28291.756,6.00,6,0.100,262324.000,0.200,26314.000,0.300,1179.000,0.500,579.000,1.000,224.000,5.000,0
"04/02/08","01:00:31",278656.000,"cc",28294.344,6.00,6,0.100,252790.000,0.200,23929.000,0.300,1150.000,0.500,601.000,1.000,186.000,5.000,0
"04/02/08","01:00:37",254085.000,"cc",28286.391,6.00,6,0.100,230616.000,0.200,21639.000,0.300,1014.000,0.500,587.000,1.000,229.000,5.000,0
"04/02/08","01:00:43",118233.000,"cc",28290.787,6.00,6,0.100,108533.000,0.200,8279.000,0.300,631.000,0.500,582.000,1.000,208.000,5.000,0
"04/02/08","01:00:49",114421.000,"cc",28318.920,6.00,6,0.100,105235.000,0.200,7798.000,0.300,630.000,0.500,575.000,1.000,183.000,5.000,0
"04/02/08","01:00:55",52632.000,"cc",28256.856,6.00,6,0.100,48229.000,0.200,3094.000,0.300,535.000,0.500,549.000,1.000,225.000,5.000,0
"04/02/08","01:01:01",42262.000,"cc",28382.279,6.00,6,0.100,38658.000,0.200,2357.000,0.300,493.000,0.500,531.000,1.000,223.000,5.000,0
"04/02/08","01:01:07",41469.000,"cc",28292.615,6.00,6,0.100,37970.000,0.200,2322.000,0.300,432.000,0.500,546.000,1.000,199.000,5.000,0
"04/02/08","01:01:13",43211.000,"cc",28420.654,6.00,6,0.100,39626.000,0.200,2401.000,0.300,491.000,0.500,489.000,1.000,204.000,5.000,0
"04/02/08","01:01:19",34765.000,"cc",28253.451,6.00,6,0.100,31647.000,0.200,1852.000,0.300,529.000,0.500,516.000,1.000,221.000,5.000,0
"04/02/08","01:01:25",32452.000,"cc",28332.381,6.00,6,0.100,29480.000,0.200,1686.000,0.300,482.000,0.500,601.000,1.000,203.000,5.000,0
"04/02/08","01:01:31",21308.000,"cc",28319.518,6.00,6,0.100,19237.000,0.200,919.000,0.300,462.000,0.500,491.000,1.000,199.000,5.000,0
"04/02/08","01:01:37",58651.000,"cc",28307.647,6.00,6,0.100,53830.000,0.200,3590.000,0.300,505.000,0.500,533.000,1.000,193.000,5.000,0
"04/02/08","01:01:43",35188.000,"cc",28274.988,6.00,6,0.100,32211.000,0.200,1884.000,0.300,429.000,0.500,498.000,1.000,166.000,5.000,0
"04/02/08","01:01:49",17206.000,"cc",28276.068,6.00,6,0.100,15506.000,0.200,651.000,0.300,421.000,0.500,451.000,1.000,177.000,5.000,0
"04/02/08","01:01:55",17067.000,"cc",28339.492,6.00,6,0.100,15305.000,0.200,663.000,0.300,414.000,0.500,522.000,1.000,163.000,5.000,0
"04/02/08","01:02:01",16873.000,"cc",28435.186,6.00,6,0.100,15168.000,0.200,639.000,0.300,399.000,0.500,489.000,1.000,178.000,5.000,0
"04/02/08","01:02:07",16608.000,"cc",28352.057,6.00,6,0.100,14847.000,0.200,692.000,0.300,421.000,0.500,478.000,1.000,170.000,5.000,0
"04/02/08","01:02:13",16638.000,"cc",28242.662,6.00,6,0.100,14883.000,0.200,661.000,0.300,430.000,0.500,473.000,1.000,191.000,5.000,0
"04/02/08","01:02:19",16267.000,"cc",28387.645,6.00,6,0.100,14566.000,0.200,666.000,0.300,407.000,0.500,465.000,1.000,163.000,5.000,0
"04/02/08","01:02:25",16717.000,"cc",28332.516,6.00,6,0.100,15040.000,0.200,671.000,0.300,378.000,0.500,455.000,1.000,173.000,5.000,0
"04/02/08","01:02:31",16489.000,"cc",28260.004,6.00,6,0.100,14806.000,0.200,655.000,0.300,391.000,0.500,465.000,1.000,172.000,5.000,0
"04/02/08","01:02:37",16395.000,"cc",28346.260,6.00,6,0.100,14732.000,0.200,638.000,0.300,367.000,0.500,474.000,1.000,184.000,5.000,0
"04/02/08","01:02:43",16912.000,"cc",28298.565,6.00,6,0.100,15142.000,0.200,674.000,0.300,412.000,0.500,500.000,1.000,184.000,5.000,0
"04/02/08","01:02:49",16743.000,"cc",28349.135,6.00,6,0.100,14987.000,0.200,647.000,0.300,414.000,0.500,536.000,1.000,159.000,5.000,0
"04/02/08","01:02:55",16586.000,"cc",28318.043,6.00,6,0.100,14888.000,0.200,661.000,0.300,404.000,0.500,456.000,1.000,177.000,5.000,0
"04/02/08","01:03:01",16605.000,"cc",28233.162,6.00,6,0.100,14897.000,0.200,641.000,0.300,405.000,0.500,474.000,1.000,188.000,5.000,0
"04/02/08","01:03:07",16661.000,"cc",28342.754,6.00,6,0.100,14900.000,0.200,663.000,0.300,404.000,0.500,486.000,1.000,208.000,5.000,0
"04/02/08","01:03:13",16478.000,"cc",28372.045,6.00,6,0.100,14748.000,0.200,660.000,0.300,402.000,0.500,483.000,1.000,185.000,5.000,0
"04/02/08","01:03:19",16821.000,"cc",28290.938,6.00,6,0.100,14992.000,0.200,700.000,0.300,412.000,0.500,533.000,1.000,184.000,5.000,0
"04/02/08","01:03:25",16883.000,"cc",28323.438,6.00,6,0.100,15071.000,0.200,683.000,0.300,408.000,0.500,528.000,1.000,193.000,5.000,0
"04/02/08","01:03:31",16630.000,"cc",28306.729,6.00,6,0.100,14841.000,0.200,709.000,0.300,406.000,0.500,476.000,1.000,198.000,5.000,0
"04/02/08","01:03:37",16457.000,"cc",28303.213,6.00,6,0.100,14752.000,0.200,638.000,0.300,390.000,0.500,472.000,1.000,205.000,5.000,0
"04/02/08","01:03:43",16441.000,"cc",28305.875,6.00,6,0.100,14673.000,0.200,661.000,0.300,406.000,0.500,529.000,1.000,172.000,5.000,0
"04/02/08","01:03:49",16806.000,"cc",28333.305,6.00,6,0.100,14970.000,0.200,697.000,0.300,425.000,0.500,517.000,1.000,197.000,5.000,0
"04/02/08","01:03:55",16620.000,"cc",28300.650,6.00,6,0.100,14826.000,0.200,661.000,0.300,426.000,0.500,514.000,1.000,193.000,5.000,0
"04/02/08","01:04:01",16603.000,"cc",28238.818,6.00,6,0.100,14735.000,0.200,670.000,0.300,443.000,0.500,542.000,1.000,213.000,5.000,0
"04/02/08","01:04:07",16705.000,"cc",28344.088,6.00,6,0.100,14834.000,0.200,705.000,0.300,442.000,0.500,528.000,1.000,196.000,5.000,0
"04/02/08","01:04:13",16607.000,"cc",28394.522,6.00,6,0.100,14833.000,0.200,662.000,0.300,438.000,0.500,485.000,1.000,189.000,5.000,0
"04/02/08","01:04:19",16609.000,"cc",28360.326,6.00,6,0.100,14805.000,0.200,657.000,0.300,431.000,0.500,531.000,1.000,185.000,5.000,0
"04/02/08","01:04:25",16444.000,"cc",28285.328,6.00,6,0.100,14669.000,0.200,695.000,0.300,409.000,0.500,468.000,1.000,203.000,5.000,0
"04/02/08","01:04:31",16873.000,"cc",28351.313,6.00,6,0.100,15066.000,0.200,651.000,0.300,453.000,0.500,511.000,1.000,192.000,5.000,0
"04/02/08","01:04:37",16502.000,"cc",28318.543,6.00,6,0.100,14825.000,0.200,649.000,0.300,373.000,0.500,487.000,1.000,168.000,5.000,0
"04/02/08","01:04:43",16580.000,"cc",28325.582,6.00,6,0.100,14850.000,0.200,638.000,0.300,399.000,0.500,507.000,1.000,186.000,5.000,0
"04/02/08","01:04:49",16553.000,"cc",28230.260,6.00,6,0.100,14751.000,0.200,664.000,0.300,403.000,0.500,543.000,1.000,192.000,5.000,0
"04/02/08","01:04:55",16658.000,"cc",28312.852,6.00,6,0.100,14940.000,0.200,635.000,0.300,409.000,0.500,486.000,1.000,188.000,5.000,0
"04/02/08","01:05:01",16750.000,"cc",28293.490,6.00,6,0.100,14955.000,0.200,677.000,0.300,441.000,0.500,497.000,1.000,180.000,5.000,0
"04/02/08","01:05:07",16596.000,"cc",28382.430,6.00,6,0.100,14836.000,0.200,647.000,0.300,441.000,0.500,498.000,1.000,174.000,5.000,0
"04/02/08","01:05:13",16505.000,"cc",28300.736,6.00,6,0.100,14727.000,0.200,666.000,0.300,404.000,0.500,514.000,1.000,194.000,5.000,0
"04/02/08","01:05:19",16485.000,"cc",28362.715,6.00,6,0.100,14744.000,0.200,623.000,0.300,439.000,0.500,497.000,1.000,182.000,5.000,0
"04/02/08","01:05:25",16385.000,"cc",28293.053,6.00,6,0.100,14590.000,0.200,691.000,0.300,428.000,0.500,493.000,1.000,183.000,5.000,0
"04/02/08","01:05:31",16249.000,"cc",28304.164,6.00,6,0.100,14592.000,0.200,593.000,0.300,395.000,0.500,500.000,1.000,169.000,5.000,0
"04/02/08","01:05:37",16508.000,"cc",28303.377,6.00,6,0.100,14892.000,0.200,614.000,0.300,361.000,0.500,441.000,1.000,200.000,5.000,0
"04/02/08","01:05:43",16180.000,"cc",28319.432,6.00,6,0.100,14416.000,0.200,669.000,0.300,417.000,0.500,485.000,1.000,193.000,5.000,0
"04/02/08","01:05:49",16210.000,"cc",28274.906,6.00,6,0.100,14495.000,0.200,675.000,0.300,411.000,0.500,447.000,1.000,182.000,5.000,0
"04/02/08","01:05:55",16498.000,"cc",28314.984,6.00,6,0.100,14760.000,0.200,661.000,0.300,404.000,0.500,491.000,1.000,182.000,5.000,0
"04/02/08","01:06:01",16245.000,"cc",28349.682,6.00,6,0.100,14615.000,0.200,635.000,0.300,365.000,0.500,458.000,1.000,172.000,5.000,0
"04/02/08","01:06:07",16307.000,"cc",28292.504,6.00,6,0.100,14636.000,0.200,609.000,0.300,431.000,0.500,451.000,1.000,180.000,5.000,0
"04/02/08","01:06:13",16014.000,"cc",28261.445,6.00,6,0.100,14447.000,0.200,596.000,0.300,342.000,0.500,465.000,1.000,164.000,5.000,0
"04/02/08","01:06:19",16592.000,"cc",28310.098,6.00,6,0.100,14926.000,0.200,629.000,0.300,374.000,0.500,483.000,1.000,180.000,5.000,0
"04/02/08","01:06:25",16488.000,"cc",28330.557,6.00,6,0.100,14904.000,0.200,590.000,0.300,365.000,0.500,459.000,1.000,170.000,5.000,0
"04/02/08","01:06:31",16267.000,"cc",28354.340,6.00,6,0.100,14609.000,0.200,603.000,0.300,382.000,0.500,483.000,1.000,190.000,5.000,0
"04/02/08","01:06:37",16130.000,"cc",28339.834,6.00,6,0.100,14521.000,0.200,626.000,0.300,383.000,0.500,427.000,1.000,173.000,5.000,0
"04/02/08","01:06:43",16038.000,"cc",28275.289,6.00,6,0.100,14418.000,0.200,620.000,0.300,370.000,0.500,470.000,1.000,160.000,5.000,0
"04/02/08","01:06:49",16065.000,"cc",28361.227,6.00,6,0.100,14439.000,0.200,596.000,0.300,361.000,0.500,471.000,1.000,198.000,5.000,0
"04/02/08","01:06:55",16247.000,"cc",28323.711,6.00,6,0.100,14508.000,0.200,648.000,0.300,389.000,0.500,508.000,1.000,194.000,5.000,0
"04/02/08","01:07:01",16043.000,"cc",28314.232,6.00,6,0.100,14320.000,0.200,646.000,0.300,406.000,0.500,481.000,1.000,190.000,5.000,0
"04/02/08","01:07:07",16000.000,"cc",28302.664,6.00,6,0.100,14311.000,0.200,653.000,0.300,408.000,0.500,461.000,1.000,167.000,5.000,0
"04/02/08","01:07:13",15916.000,"cc",28346.070,6.00,6,0.100,14224.000,0.200,637.000,0.300,401.000,0.500,483.000,1.000,171.000,5.000,0
"04/02/08","01:07:19",15811.000,"cc",28294.305,6.00,6,0.100,14152.000,0.200,637.000,0.300,388.000,0.500,485.000,1.000,149.000,5.000,0
"04/02/08","01:07:25",15781.000,"cc",28337.406,6.00,6,0.100,14145.000,0.200,585.000,0.300,391.000,0.500,476.000,1.000,184.000,5.000,0
"04/02/08","01:07:31",16455.000,"cc",28379.883,6.00,6,0.100,14669.000,0.200,675.000,0.300,422.000,0.500,502.000,1.000,187.000,5.000,0
"04/02/08","01:07:37",16390.000,"cc",28267.068,6.00,6,0.100,14654.000,0.200,623.000,0.300,420.000,0.500,500.000,1.000,193.000,5.000,0
"04/02/08","01:07:43",16741.000,"cc",28213.291,6.00,6,0.100,14838.000,0.200,722.000,0.300,427.000,0.500,556.000,1.000,198.000,5.000,0
"04/02/08","01:07:49",16791.000,"cc",28466.578,6.00,6,0.100,15008.000,0.200,657.000,0.300,445.000,0.500,509.000,1.000,172.000,5.000,0
"04/02/08","01:07:55",16526.000,"cc",28395.420,6.00,6,0.100,14655.000,0.200,695.000,0.300,431.000,0.500,525.000,1.000,220.000,5.000,0
"04/02/08","01:08:01",16523.000,"cc",28346.764,6.00,6,0.100,14704.000,0.200,640.000,0.300,433.000,0.500,553.000,1.000,193.000,5.000,0
"04/02/08","01:08:07",16604.000,"cc",28339.725,6.00,6,0.100,14792.000,0.200,652.000,0.300,457.000,0.500,509.000,1.000,194.000,5.000,0
"04/02/08","01:08:13",16503.000,"cc",28345.293,6.00,6,0.100,14687.000,0.200,671.000,0.300,428.000,0.500,519.000,1.000,198.000,5.000,0
"04/02/08","01:08:19",16321.000,"cc",28350.445,6.00,6,0.100,14570.000,0.200,658.000,0.300,414.000,0.500,488.000,1.000,191.000,5.000,0
"04/02/08","01:08:25",16453.000,"cc",28258.045,6.00,6,0.100,14691.000,0.200,681.000,0.300,423.000,0.500,490.000,1.000,168.000,5.000,0
"04/02/08","01:08:31",16632.000,"cc",28203.770,6.00,6,0.100,14832.000,0.200,648.000,0.300,432.000,0.500,514.000,1.000,206.000,5.000,0
"04/02/08","01:08:37",16521.000,"cc",28242.035,6.00,6,0.100,14692.000,0.200,698.000,0.300,441.000,0.500,535.000,1.000,155.000,5.000,0
"04/02/08","01:08:43",15689.000,"cc",28267.352,6.00,6,0.100,14081.000,0.200,595.000,0.300,403.000,0.500,454.000,1.000,156.000,5.000,0
"04/02/08","01:08:49",16012.000,"cc",28416.104,6.00,6,0.100,14353.000,0.200,606.000,0.300,424.000,0.500,454.000,1.000,175.000,5.000,0
"04/02/08","01:08:55",15832.000,"cc",28334.684,6.00,6,0.100,14202.000,0.200,592.000,0.300,389.000,0.500,474.000,1.000,175.000,5.000,0
"04/02/08","01:09:01",16035.000,"cc",28308.668,6.00,6,0.100,14321.000,0.200,636.000,0.300,382.000,0.500,509.000,1.000,187.000,5.000,0
"04/02/08","01:09:07",16209.000,"cc",28356.746,6.00,6,0.100,14565.000,0.200,598.000,0.300,395.000,0.500,473.000,1.000,178.000,5.000,0
"04/02/08","01:09:13",16301.000,"cc",28252.234,6.00,6,0.100,14649.000,0.200,626.000,0.300,373.000,0.500,470.000,1.000,183.000,5.000,0
"04/02/08","01:09:19",16383.000,"cc",28320.582,6.00,6,0.100,14732.000,0.200,586.000,0.300,413.000,0.500,465.000,1.000,187.000,5.000,0
"04/02/08","01:09:25",16109.000,"cc",28330.553,6.00,6,0.100,14358.000,0.200,682.000,0.300,392.000,0.500,489.000,1.000,188.000,5.000,0
"04/02/08","01:09:31",16072.000,"cc",28344.879,6.00,6,0.100,14342.000,0.200,626.000,0.300,374.000,0.500,521.000,1.000,209.000,5.000,0
"04/02/08","01:09:37",15830.000,"cc",28306.131,6.00,6,0.100,14093.000,0.200,659.000,0.300,424.000,0.500,491.000,1.000,163.000,5.000,0
"04/02/08","01:09:43",16303.000,"cc",28336.533,6.00,6,0.100,14547.000,0.200,679.000,0.300,392.000,0.500,502.000,1.000,183.000,5.000,0
"04/02/08","01:09:49",16085.000,"cc",28368.258,6.00,6,0.100,14358.000,0.200,662.000,0.300,409.000,0.500,481.000,1.000,175.000,5.000,0
"04/02/08","01:09:55",16304.000,"cc",28310.609,6.00,6,0.100,14513.000,0.200,658.000,0.300,407.000,0.500,524.000,1.000,202.000,5.000,0
"04/02/08","01:10:01",16501.000,"cc",28286.697,6.00,6,0.100,14792.000,0.200,664.000,0.300,425.000,0.500,449.000,1.000,171.000,5.000,0
"04/02/08","01:10:07",16212.000,"cc",28253.697,6.00,6,0.100,14552.000,0.200,628.000,0.300,397.000,0.500,477.000,1.000,158.000,5.000,0
"04/02/08","01:10:13",16284.000,"cc",28275.287,6.00,6,0.100,14584.000,0.200,610.000,0.300,403.000,0.500,492.000,1.000,195.000,5.000,0
"04/02/08","01:10:19",16158.000,"cc",28397.191,6.00,6,0.100,14533.000,0.200,583.000,0.300,385.000,0.500,483.000,1.000,174.000,5.000,0
"04/02/08","01:10:25",16221.000,"cc",28332.291,6.00,6,0.100,14556.000,0.200,596.000,0.300,428.000,0.500,472.000,1.000,169.000,5.000,0
"04/02/08","01:10:31",16153.000,"cc",28249.941,6.00,6,0.100,14547.000,0.200,577.000,0.300,386.000,0.500,466.000,1.000,177.000,5.000,0
"04/02/08","01:10:37",16085.000,"cc",28319.020,6.00,6,0.100,14469.000,0.200,564.000,0.300,407.000,0.500,446.000,1.000,199.000,5.000,0
"04/02/08","01:10:43",16321.000,"cc",28368.045,6.00,6,0.100,14722.000,0.200,603.000,0.300,376.000,0.500,435.000,1.000,185.000,5.000,0
"04/02/08","01:10:49",16458.000,"cc",28322.188,6.00,6,0.100,14782.000,0.200,633.000,0.300,402.000,0.500,457.000,1.000,184.000,5.000,0
"04/02/08","01:10:55",16159.000,"cc",28291.293,6.00,6,0.100,14446.000,0.200,629.000,0.300,398.000,0.500,481.000,1.000,205.000,5.000,0
"04/02/08","01:11:01",16517.000,"cc",28329.440,6.00,6,0.100,14869.000,0.200,596.000,0.300,426.000,0.500,465.000,1.000,161.000,5.000,0
"04/02/08","01:11:07",16206.000,"cc",28336.559,6.00,6,0.100,14532.000,0.200,642.000,0.300,391.000,0.500,452.000,1.000,189.000,5.000,0
"04/02/08","01:11:13",16428.000,"cc",28301.043,6.00,6,0.100,14638.000,0.200,669.000,0.300,441.000,0.500,496.000,1.000,184.000,5.000,0
"04/02/08","01:11:19",15901.000,"cc",28349.678,6.00,6,0.100,14295.000,0.200,601.000,0.300,394.000,0.500,442.000,1.000,169.000,5.000,0
"04/02/08","01:11:25",16084.000,"cc",28265.133,6.00,6,0.100,14376.000,0.200,633.000,0.300,400.000,0.500,500.000,1.000,175.000,5.000,0
"04/02/08","01:11:31",16259.000,"cc",28382.908,6.00,6,0.100,14646.000,0.200,585.000,0.300,399.000,0.500,447.000,1.000,182.000,5.000,0
"04/02/08","01:11:37",16098.000,"cc",28264.393,6.00,6,0.100,14391.000,0.200,622.000,0.300,384.000,0.500,506.000,1.000,195.000,5.000,0
"04/02/08","01:11:43",15972.000,"cc",28407.352,6.00,6,0.100,14294.000,0.200,620.000,0.300,405.000,0.500,481.000,1.000,172.000,5.000,0
"04/02/08","01:11:49",16055.000,"cc",28313.316,6.00,6,0.100,14305.000,0.200,653.000,0.300,463.000,0.500,463.000,1.000,171.000,5.000,0
"04/02/08","01:11:55",15510.000,"cc",28357.234,6.00,6,0.100,13866.000,0.200,616.000,0.300,384.000,0.500,467.000,1.000,177.000,5.000,0
"04/02/08","01:12:01",15338.000,"cc",28355.684,6.00,6,0.100,13809.000,0.200,594.000,0.300,341.000,0.500,424.000,1.000,170.000,5.000,0
"04/02/08","01:12:07",15498.000,"cc",28265.506,6.00,6,0.100,13871.000,0.200,626.000,0.300,381.000,0.500,443.000,1.000,177.000,5.000,0
"04/02/08","01:12:13",15963.000,"cc",28341.824,6.00,6,0.100,14345.000,0.200,611.000,0.300,401.000,0.500,449.000,1.000,157.000,5.000,0
"04/02/08","01:12:19",16011.000,"cc",28341.443,6.00,6,0.100,14457.000,0.200,611.000,0.300,362.000,0.500,424.000,1.000,157.000,5.000,0
"04/02/08","01:12:25",16448.000,"cc",28292.820,6.00,6,0.100,14699.000,0.200,622.000,0.300,419.000,0.500,527.000,1.000,181.000,5.000,0
"04/02/08","01:12:31",16359.000,"cc",28297.426,6.00,6,0.100,14713.000,0.200,615.000,0.300,391.000,0.500,459.000,1.000,181.000,5.000,0
"04/02/08","01:12:37",16461.000,"cc",28327.148,6.00,6,0.100,14848.000,0.200,604.000,0.300,370.000,0.500,474.000,1.000,165.000,5.000,0
"04/02/08","01:12:43",16484.000,"cc",28278.881,6.00,6,0.100,14886.000,0.200,605.000,0.300,360.000,0.500,467.000,1.000,166.000,5.000,0
"04/02/08","01:12:49",16448.000,"cc",28370.336,6.00,6,0.100,14791.000,0.200,583.000,0.300,397.000,0.500,473.000,1.000,204.000,5.000,0
"04/02/08","01:12:55",16261.000,"cc",28293.109,6.00,6,0.100,14627.000,0.200,598.000,0.300,401.000,0.500,457.000,1.000,178.000,5.000,0
"04/02/08","01:13:01",16133.000,"cc",28325.807,6.00,6,0.100,14478.000,0.200,643.000,0.300,383.000,0.500,460.000,1.000,169.000,5.000,0
"04/02/08","01:13:07",16318.000,"cc",28328.031,6.00,6,0.100,14630.000,0.200,629.000,0.300,396.000,0.500,455.000,1.000,208.000,5.000,0
"04/02/08","01:13:13",16323.000,"cc",28266.676,6.00,6,0.100,14592.000,0.200,635.000,0.300,398.000,0.500,513.000,1.000,185.000,5.000,0
"04/02/08","01:13:19",16221.000,"cc",28322.596,6.00,6,0.100,14403.000,0.200,684.000,0.300,395.000,0.500,550.000,1.000,189.000,5.000,0
"04/02/08","01:13:25",16085.000,"cc",28283.799,6.00,6,0.100,14406.000,0.200,636.000,0.300,391.000,0.500,475.000,1.000,177.000,5.000,0
"04/02/08","01:13:31",16252.000,"cc",28323.516,6.00,6,0.100,14609.000,0.200,625.000,0.300,386.000,0.500,457.000,1.000,175.000,5.000,0
"04/02/08","01:13:37",16534.000,"cc",28403.336,6.00,6,0.100,14853.000,0.200,621.000,0.300,401.000,0.500,507.000,1.000,152.000,5.000,0
"04/02/08","01:13:43",16221.000,"cc",28360.281,6.00,6,0.100,14552.000,0.200,621.000,0.300,406.000,0.500,480.000,1.000,162.000,5.000,0
"04/02/08","01:13:49",16417.000,"cc",28300.281,6.00,6,0.100,14684.000,0.200,601.000,0.300,457.000,0.500,491.000,1.000,184.000,5.000,0
"04/02/08","01:13:55",16051.000,"cc",28307.686,6.00,6,0.100,14369.000,0.200,647.000,0.300,387.000,0.500,473.000,1.000,175.000,5.000,0
"04/02/08","01:14:01",15720.000,"cc",28287.152,6.00,6,0.100,14146.000,0.200,591.000,0.300,351.000,0.500,450.000,1.000,182.000,5.000,0
"04/02/08","01:14:07",15912.000,"cc",28334.604,6.00,6,0.100,14277.000,0.200,590.000,0.300,376.000,0.500,508.000,1.000,161.000,5.000,0
"04/02/08","01:14:13",15666.000,"cc",28317.313,6.00,6,0.100,14076.000,0.200,602.000,0.300,363.000,0.500,429.000,1.000,196.000,5.000,0
"04/02/08","01:14:19",15260.000,"cc",28247.701,6.00,6,0.100,13654.000,0.200,599.000,0.300,373.000,0.500,460.000,1.000,174.000,5.000,0
"04/02/08","01:14:25",15302.000,"cc",28304.568,6.00,6,0.100,13737.000,0.200,577.000,0.300,370.000,0.500,443.000,1.000,175.000,5.000,0
"04/02/08","01:14:31",15274.000,"cc",28343.275,6.00,6,0.100,13588.000,0.200,615.000,0.300,409.000,0.500,500.000,1.000,162.000,5.000,0
"04/02/08","01:14:37",15655.000,"cc",28345.039,6.00,6,0.100,13956.000,0.200,643.000,0.300,418.000,0.500,457.000,1.000,181.000,5.000,0
"04/02/08","01:14:43",15438.000,"cc",28361.832,6.00,6,0.100,13857.000,0.200,608.000,0.300,385.000,0.500,451.000,1.000,137.000,5.000,0
"04/02/08","01:14:49",15667.000,"cc",28392.057,6.00,6,0.100,14038.000,0.200,627.000,0.300,384.000,0.500,459.000,1.000,159.000,5.000,0
"04/02/08","01:14:55",15823.000,"cc",28243.504,6.00,6,0.100,14159.000,0.200,613.000,0.300,392.000,0.500,473.000,1.000,186.000,5.000,0
"04/02/08","01:15:01",15827.000,"cc",28278.141,6.00,6,0.100,14186.000,0.200,628.000,0.300,359.000,0.500,474.000,1.000,180.000,5.000,0
"04/02/08","01:15:07",15877.000,"cc",28417.652,6.00,6,0.100,14303.000,0.200,584.000,0.300,378.000,0.500,469.000,1.000,143.000,5.000,0
"04/02/08","01:15:13",15810.000,"cc",28269.955,6.00,6,0.100,14215.000,0.200,629.000,0.300,339.000,0.500,458.000,1.000,169.000,5.000,0
"04/02/08","01:15:19",16259.000,"cc",28288.191,6.00,6,0.100,14634.000,0.200,637.000,0.300,379.000,0.500,457.000,1.000,152.000,5.000,0
"04/02/08","01:15:25",15968.000,"cc",28368.834,6.00,6,0.100,14399.000,0.200,561.000,0.300,370.000,0.500,478.000,1.000,160.000,5.000,0
"04/02/08","01:15:31",15704.000,"cc",28394.264,6.00,6,0.100,14064.000,0.200,596.000,0.300,399.000,0.500,477.000,1.000,168.000,5.000,0
"04/02/08","01:15:37",16112.000,"cc",28285.215,6.00,6,0.100,14420.000,0.200,640.000,0.300,419.000,0.500,457.000,1.000,176.000,5.000,0
"04/02/08","01:15:43",15865.000,"cc",28317.777,6.00,6,0.100,14248.000,0.200,597.000,0.300,391.000,0.500,446.000,1.000,183.000,5.000,0
"04/02/08","01:15:49",16116.000,"cc",28284.404,6.00,6,0.100,14481.000,0.200,619.000,0.300,383.000,0.500,463.000,1.000,170.000,5.000,0
"04/02/08","01:15:55",16424.000,"cc",28250.301,6.00,6,0.100,14782.000,0.200,625.000,0.300,378.000,0.500,449.000,1.000,190.000,5.000,0
"04/02/08","01:16:01",16224.000,"cc",28321.990,6.00,6,0.100,14514.000,0.200,632.000,0.300,415.000,0.500,453.000,1.000,210.000,5.000,0
"04/02/08","01:16:07",16398.000,"cc",28351.344,6.00,6,0.100,14728.000,0.200,593.000,0.300,398.000,0.500,493.000,1.000,186.000,5.000,0
"04/02/08","01:16:13",16533.000,"cc",28359.107,6.00,6,0.100,14911.000,0.200,614.000,0.300,400.000,0.500,439.000,1.000,169.000,5.000,0
"04/02/08","01:16:19",16620.000,"cc",28242.174,6.00,6,0.100,14824.000,0.200,635.000,0.300,458.000,0.500,513.000,1.000,190.000,5.000,0
"04/02/08","01:16:25",16438.000,"cc",28270.961,6.00,6,0.100,14684.000,0.200,628.000,0.300,401.000,0.500,504.000,1.000,221.000,5.000,0
"04/02/08","01:16:31",16561.000,"cc",28311.568,6.00,6,0.100,14889.000,0.200,637.000,0.300,390.000,0.500,486.000,1.000,159.000,5.000,0
"04/02/08","01:16:37",16724.000,"cc",28392.633,6.00,6,0.100,15018.000,0.200,606.000,0.300,409.000,0.500,506.000,1.000,185.000,5.000,0
"04/02/08","01:16:43",16807.000,"cc",28368.346,6.00,6,0.100,15124.000,0.200,636.000,0.300,401.000,0.500,471.000,1.000,175.000,5.000,0